User: anonymous   Login
Location: Unspecified
(0.0000°N, 0.0000°E)
Time: 16:41:51
(UTC+00:00)
Language:

SLDCOM 1 - Orbit

View from above orbital plane
View from above orbital plane
View from above satellite
View from above satellite

Ground track
Ground track

The orbit data is extracted from the following two-line orbital elements,

1 20641U 90050A   16364.89466829 0.00000000  00000-0  00000-0 0    02
2 20641  63.4197 235.9205 4035848 265.1455  48.8593  6.02583457    08
Epoch (UTC): 29 December 2016 21:28:19
Eccentricity: 0.4035848
inclination: 63.4197°
perigee height: 1230 km
apogee height: 11526 km
right ascension of ascending node: 235.9205°
argument of perigee: 265.1455°
revolutions per day: 6.02583457
mean anomaly at epoch: 48.8593°
orbit number at epoch: 0

The dashed part of the orbit path shows where the satellite is in the earth's shadow,  

DLR